Location: Zagreb
(45.8000°N, 16.0000°E)
Time: 01:02:40
(UTC+01:00)

Vanguard 1 - Visible Passes

Search period start: 23 January 2022 00:00
Search period end: 02 February 2022 00:00
Orbit: 652 x 3830 km, 34.2° (Epoch: 22 January)

Date Brightness Start Highest point End Pass type
(mag) Time Alt. Az. Time Alt. Az. Time Alt. Az.
30 Jan 13.9 05:53:04 10° S 06:00:11 15° SSE 06:05:46 10° ESE visible
31 Jan 13.6 06:11:11 10° SSW 06:21:08 20° SSE 06:28:11 10° ESE visible
01 Feb 13.4 06:30:21 10° SSW 06:42:04 25° SSE 06:49:48 10° ESE visible
